Home   Weather   Jujuy   Past weeks

Flag for Argentina Past Weather in Jujuy, Jujuy, Argentina — Yesterday and Last 2 Weeks

Now
55 °F

Clear.


Feels Like: 55 °F
Forecast: 45 / 62 °F
Wind: 3 mph from Northwest

Location: Jujuy Aerodrome

Current Time: Apr 27, 2017 at 12:27:32 am

Latest Report: Apr 27, 2017 at 12:00 am


Visibility: 10 mi

Pressure: 30.27 "Hg (21.42 "Hg at 2895m altitude)

Humidity: 94%

Dew Point: 54 °F

Location of JujuyLocation

Past Weather in Jujuy — Graph

°F

Jujuy Temperature Yesterday

Maximum temperature yesterday: 63 °F (at 12:00 pm)
Minimum temperature yesterday: 57 °F (at 8:00 pm)
Average temperature yesterday: 60 °F

High & Low Weather Summary for the Past Weeks

 TemperatureHumidityPressure
High77 °F (Apr 24, 3:00 pm)100% (Apr 15, 5:00 am)30.30 "Hg (Apr 15, 5:00 am)
Low48 °F (Apr 20, 8:00 am)41% (Apr 12, 5:00 pm)29.62 "Hg (Apr 25, 2:00 pm)
Average63 °F82%30.04 "Hg
* Reported Apr 11 9:00 pm — Apr 26 9:00 pm, Jujuy, Weather by CustomWeather, © 2017

Note: Actual official high and low records may vary slightly from our data, if they occured in-between our weather recording intervals... More about our weather records

Advertising

Jujuy Weather History for the Previous 24 Hours

Scroll right to see more
 ConditionsComfort  
Time TempWeatherWind HumidityBarometerVisibility
9:00 pm
Wed, Apr 26
57 °FMostly cloudy.No wind94%30.24 "HgN/A
8:00 pm57 °FDrizzle. Overcast.3 mph94%30.21 "Hg6 mi
7:00 pm59 °FOvercast.3 mph88%30.18 "HgN/A
6:00 pm61 °FPartly sunny.5 mph83%30.12 "HgN/A
5:00 pm61 °FOvercast.6 mph77%30.12 "HgN/A
4:00 pm63 °FOvercast.5 mph73%30.09 "HgN/A
3:00 pm63 °FOvercast.No wind64%30.12 "HgN/A
2:00 pm63 °FOvercast.No wind56%30.12 "HgN/A
1:00 pm63 °FOvercast.3 mph52%30.15 "HgN/A
12:00 pm63 °FOvercast.3 mph52%30.18 "HgN/A
11:00 am61 °FOvercast.No wind59%30.18 "HgN/A
10:00 am61 °FOvercast.5 mph55%30.18 "HgN/A
9:00 am59 °FPartly sunny.5 mph59%30.15 "HgN/A
8:00 am59 °FOvercast.6 mph59%30.12 "HgN/A
7:00 am59 °FMostly cloudy.13 mph59%30.09 "HgN/A
6:00 am59 °FMostly cloudy.12 mph68%30.07 "HgN/A
3:00 am61 °FPartly cloudy.12 mph77%30.04 "HgN/A
2:00 am61 °FPartly cloudy.13 mph77%30.04 "HgN/A
Weather by CustomWeather, © 2017

See weather overviewHow to use our weather pages